This is the latest recevied weather packets stored in our database for station/object KE8ZLU. If no packets are shown the sender has not sent any weather packets the latest 1 day(s).
| Time | Temp. | Humidity | Pressure | Rain* | Wind** | Luminosity | Snow |
|---|---|---|---|---|---|---|---|
| 1778034462 | 8.33° C | 61% | 1010.4 hPa | 0 mm | 0.89 m/s, 282° | 0 W/m² | - |
| 1778034160 | 8.33° C | 60% | 1010.3 hPa | 0 mm | 1.34 m/s, 275° | 0 W/m² | - |
| 1778033858 | 8.33° C | 61% | 1010.5 hPa | 0 mm | 0.89 m/s, 277° | 0 W/m² | - |
| 1778033555 | 8.33° C | 61% | 1010.2 hPa | 0 mm | 0.89 m/s, 274° | 0 W/m² | - |
| 1778033251 | 8.33° C | 60% | 1010.3 hPa | 0 mm | 1.79 m/s, 288° | 0 W/m² | - |
| 1778032949 | 8.33° C | 60% | 1010.4 hPa | 0 mm | 0.89 m/s, 285° | 0 W/m² | - |
| 1778032647 | 8.33° C | 59% | 1010.3 hPa | 0 mm | 1.79 m/s, 272° | 0 W/m² | - |
| 1778032344 | 8.89° C | 61% | 1010 hPa | 0 mm | 0.89 m/s, 290° | 0 W/m² | - |
| 1778032041 | 8.33° C | 61% | 1010.3 hPa | 0 mm | 0.89 m/s, 272° | 0 W/m² | - |
| 1778031737 | 8.89° C | 60% | 1010.3 hPa | 0 mm | 0.89 m/s, 247° | 0 W/m² | - |
| 1778031435 | 8.89° C | 60% | 1010.2 hPa | 0 mm | 0.89 m/s, 300° | 0 W/m² | - |
| 1778031132 | 8.89° C | 59% | 1010 hPa | 0 mm | 0.89 m/s, 285° | 0 W/m² | - |
| 1778030828 | 8.89° C | 59% | 1009.8 hPa | 0 mm | 0.45 m/s, 277° | 0 W/m² | - |
| 1778030525 | 8.89° C | 57% | 1009.8 hPa | 0 mm | 1.34 m/s, 274° | 0 W/m² | - |
| 1778030222 | 8.89° C | 58% | 1009.8 hPa | 0 mm | 0.89 m/s, 281° | 0 W/m² | - |
| 1778029918 | 8.89° C | 58% | 1010 hPa | 0 mm | 1.34 m/s, 285° | 0 W/m² | - |
| 1778029617 | 8.89° C | 57% | 1009.6 hPa | 0 mm | 1.34 m/s, 273° | 0 W/m² | - |
| 1778029313 | 8.89° C | 57% | 1009.7 hPa | 0 mm | 0.89 m/s, 277° | 0 W/m² | - |
| 1778029010 | 8.89° C | 57% | 1009.6 hPa | 0 mm | 0.89 m/s, 294° | 0 W/m² | - |
| 1778028707 | 8.89° C | 56% | 1009.7 hPa | 0 mm | 1.34 m/s, 266° | 1 W/m² | - |
| 1778028403 | 8.89° C | 56% | 1009.7 hPa | 0 mm | 1.34 m/s, 294° | 1 W/m² | - |
| 1778028101 | 9.44° C | 56% | 1009.7 hPa | 0 mm | 1.34 m/s, 263° | 2 W/m² | - |
| 1778027797 | 9.44° C | 55% | 1009.7 hPa | 0 mm | 1.34 m/s, 275° | 3 W/m² | - |
| 1778027493 | 9.44° C | 56% | 1009.9 hPa | 0 mm | 0.89 m/s, 302° | 4 W/m² | - |
| 1778027189 | 9.44° C | 54% | 1009.9 hPa | 0 mm | 0.89 m/s, 281° | 4 W/m² | - |
* Rain latest hour (hover to see other rain measurements)
** Current wind speed in m/s (hover to see current wind gust speed)